TimeEDT,TemperatureF,Dew PointF,Humidity,Sea Level PressureIn,VisibilityMPH,Wind Direction,Wind SpeedMPH,Gust SpeedMPH,PrecipitationIn,Events,Conditions,WindDirDegrees,DateUTC
12:15 AM,42.8,37.4,81,30.16,10.0,East,4.6,-,N/A,,Overcast,80,2013-04-12 04:15:00
12:35 AM,42.8,39.2,87,30.17,10.0,NE,5.8,-,N/A,,Overcast,50,2013-04-12 04:35:00
1:15 AM,41.0,37.4,87,30.18,10.0,ENE,4.6,-,N/A,,Overcast,70,2013-04-12 05:15:00
1:35 AM,41.0,37.4,87,30.18,10.0,Calm,Calm,-,N/A,,Overcast,0,2013-04-12 05:35:00
2:15 AM,39.2,37.4,93,30.16,10.0,ENE,5.8,-,N/A,,Overcast,70,2013-04-12 06:15:00
2:35 AM,41.0,35.6,81,30.16,10.0,ENE,6.9,-,N/A,,Overcast,70,2013-04-12 06:35:00
2:55 AM,41.0,33.8,76,30.17,10.0,ENE,6.9,-,N/A,,Overcast,60,2013-04-12 06:55:00
3:15 AM,41.0,37.4,87,30.17,10.0,ENE,8.1,-,N/A,,Overcast,60,2013-04-12 07:15:00
3:35 AM,41.0,30.2,65,30.17,10.0,ENE,12.7,-,N/A,,Overcast,70,2013-04-12 07:35:00
3:55 AM,41.0,32.0,70,30.17,10.0,ENE,11.5,16.1,N/A,,Overcast,70,2013-04-12 07:55:00
4:15 AM,41.0,30.2,65,30.17,10.0,East,12.7,-,N/A,,Overcast,80,2013-04-12 08:15:00
4:35 AM,41.0,28.4,61,30.18,10.0,East,12.7,-,N/A,,Overcast,80,2013-04-12 08:35:00
4:55 AM,41.0,32.0,70,30.17,10.0,East,15.0,-,N/A,,Overcast,80,2013-04-12 08:55:00
5:15 AM,41.0,35.6,81,30.16,10.0,ENE,17.3,20.7,N/A,,Overcast,70,2013-04-12 09:15:00
5:35 AM,41.0,33.8,76,30.16,10.0,ENE,16.1,21.9,N/A,,Overcast,70,2013-04-12 09:35:00
5:55 AM,41.0,33.8,76,30.17,10.0,ENE,18.4,24.2,N/A,,Overcast,70,2013-04-12 09:55:00
6:15 AM,41.0,32.0,70,30.16,10.0,East,15.0,24.2,N/A,,Overcast,80,2013-04-12 10:15:00
6:35 AM,41.0,30.2,65,30.16,10.0,East,18.4,26.5,N/A,,Overcast,80,2013-04-12 10:35:00
6:55 AM,41.0,30.2,65,30.17,10.0,East,18.4,25.3,N/A,,Overcast,80,2013-04-12 10:55:00
7:15 AM,41.0,30.2,65,30.17,10.0,East,21.9,27.6,N/A,,Overcast,80,2013-04-12 11:15:00
7:35 AM,41.0,30.2,65,30.18,10.0,East,18.4,25.3,N/A,,Overcast,80,2013-04-12 11:35:00
7:55 AM,41.0,30.2,65,30.17,10.0,East,21.9,26.5,N/A,,Overcast,90,2013-04-12 11:55:00
8:15 AM,41.0,28.4,61,30.16,10.0,East,18.4,23.0,N/A,,Overcast,90,2013-04-12 12:15:00
8:35 AM,41.0,28.4,61,30.16,10.0,East,20.7,29.9,N/A,,Overcast,90,2013-04-12 12:35:00
8:55 AM,41.0,28.4,61,30.17,10.0,East,17.3,24.2,N/A,,Overcast,100,2013-04-12 12:55:00
9:15 AM,41.0,30.2,65,30.17,10.0,East,18.4,27.6,N/A,,Overcast,100,2013-04-12 13:15:00
9:35 AM,42.8,30.2,61,30.16,10.0,East,18.4,23.0,N/A,,Overcast,90,2013-04-12 13:35:00
9:55 AM,42.8,30.2,61,30.15,10.0,East,19.6,26.5,N/A,,Overcast,100,2013-04-12 13:55:00
10:15 AM,42.8,32.0,66,30.11,10.0,East,23.0,28.8,N/A,,Overcast,100,2013-04-12 14:15:00
10:55 AM,42.8,28.4,57,30.11,10.0,East,20.7,27.6,N/A,,Overcast,100,2013-04-12 14:55:00
11:15 AM,42.8,30.2,61,30.10,10.0,East,16.1,25.3,N/A,,Overcast,100,2013-04-12 15:15:00
11:35 AM,41.0,28.4,61,30.09,10.0,ESE,18.4,26.5,N/A,,Overcast,110,2013-04-12 15:35:00
11:55 AM,41.0,28.4,61,30.07,10.0,ESE,18.4,27.6,N/A,,Overcast,110,2013-04-12 15:55:00
12:15 PM,41.0,30.2,65,30.07,10.0,ESE,12.7,23.0,N/A,,Overcast,110,2013-04-12 16:15:00
12:35 PM,39.2,32.0,75,30.05,10.0,ESE,17.3,26.5,N/A,,Overcast,110,2013-04-12 16:35:00
12:55 PM,39.2,32.0,75,30.06,10.0,ESE,12.7,23.0,0.01,,Overcast,110,2013-04-12 16:55:00
1:15 PM,39.2,33.8,81,30.06,8.0,ESE,11.5,-,0.05,,Overcast,110,2013-04-12 17:15:00
1:35 PM,39.2,33.8,81,30.04,9.0,ESE,11.5,17.3,0.08,,Overcast,120,2013-04-12 17:35:00
1:55 PM,39.2,35.6,87,30.03,9.0,ESE,15.0,23.0,0.10,,Overcast,120,2013-04-12 17:55:00
2:15 PM,37.4,35.6,93,30.02,6.0,ESE,11.5,20.7,0.02,,Overcast,110,2013-04-12 18:15:00
2:35 PM,37.4,35.6,93,30.01,7.0,East,11.5,19.6,0.05,,Mostly Cloudy,100,2013-04-12 18:35:00
2:55 PM,37.4,33.8,87,30.00,5.0,East,15.0,20.7,0.08,,Overcast,100,2013-04-12 18:55:00
3:15 PM,37.4,35.6,93,30.00,3.0,East,11.5,-,0.05,,Overcast,100,2013-04-12 19:15:00
3:35 PM,37.4,35.6,93,29.97,5.0,East,15.0,23.0,0.10,,Overcast,100,2013-04-12 19:35:00
3:55 PM,39.2,37.4,93,29.95,7.0,ESE,16.1,23.0,0.13,,Overcast,110,2013-04-12 19:55:00
4:15 PM,39.2,37.4,93,29.92,9.0,East,17.3,24.2,0.01,,Overcast,100,2013-04-12 20:15:00
4:35 PM,39.2,37.4,93,29.89,10.0,East,15.0,25.3,0.03,,Overcast,100,2013-04-12 20:35:00
4:55 PM,39.2,37.4,93,29.88,10.0,East,15.0,26.5,0.03,,Overcast,100,2013-04-12 20:55:00
5:15 PM,39.2,37.4,93,29.88,10.0,East,18.4,26.5,0.01,,Overcast,100,2013-04-12 21:15:00
5:35 PM,39.2,37.4,93,29.88,4.0,East,17.3,24.2,0.02,,Overcast,100,2013-04-12 21:35:00
5:55 PM,39.2,37.4,93,29.88,3.0,East,13.8,21.9,0.05,,Overcast,90,2013-04-12 21:55:00
6:15 PM,39.2,37.4,93,29.88,7.0,East,18.4,-,0.01,,Overcast,80,2013-04-12 22:15:00
6:35 PM,39.2,39.2,100,29.86,5.0,East,17.3,24.2,0.02,,Overcast,80,2013-04-12 22:35:00
6:55 PM,39.2,37.4,93,29.84,5.0,East,16.1,24.2,0.03,,Overcast,80,2013-04-12 22:55:00
7:15 PM,41.0,39.2,93,29.82,5.0,East,16.1,25.3,0.05,,Overcast,80,2013-04-12 23:15:00
7:35 PM,39.2,39.2,100,29.80,6.0,ENE,18.4,25.3,0.11,,Overcast,70,2013-04-12 23:35:00
7:55 PM,41.0,39.2,93,29.79,7.0,ENE,18.4,24.2,0.16,,Overcast,70,2013-04-12 23:55:00
8:15 PM,41.0,39.2,93,29.79,5.0,ENE,19.6,27.6,0.05,,Overcast,70,2013-04-13 00:15:00
8:35 PM,41.0,39.2,93,29.78,6.0,ENE,19.6,24.2,0.06,,Overcast,70,2013-04-13 00:35:00
8:55 PM,41.0,39.2,93,29.77,4.0,ENE,19.6,25.3,0.07,,Overcast,60,2013-04-13 00:55:00
9:15 PM,41.0,39.2,93,29.76,7.0,ENE,16.1,23.0,N/A,,Overcast,60,2013-04-13 01:15:00
9:35 PM,42.8,39.2,87,29.75,10.0,ENE,18.4,23.0,N/A,,Overcast,60,2013-04-13 01:35:00
9:55 PM,42.8,39.2,87,29.75,9.0,NE,18.4,24.2,N/A,,Overcast,50,2013-04-13 01:55:00
10:15 PM,42.8,39.2,87,29.75,10.0,NE,16.1,-,N/A,,Overcast,50,2013-04-13 02:15:00
10:35 PM,42.8,41.0,93,29.74,5.0,NE,18.4,-,N/A,,Overcast,40,2013-04-13 02:35:00
10:55 PM,42.8,41.0,93,29.74,3.0,NE,15.0,21.9,N/A,,Overcast,40,2013-04-13 02:55:00
11:15 PM,42.8,41.0,93,29.72,2.5,NNE,17.3,24.2,0.01,,Overcast,30,2013-04-13 03:15:00
11:35 PM,41.0,39.2,93,29.72,3.0,NE,16.1,24.2,0.01,,Overcast,40,2013-04-13 03:35:00
11:55 PM,41.0,39.2,93,29.71,5.0,NE,19.6,26.5,0.01,,Overcast,40,2013-04-13 03:55:00